Theta_e
311 309 310 309 309 310 309 308 310 309 310 311 310 310 310 308 308 306 305 306 306 305 308 313 316 320 330 332 334 335 335 333 331 332 331 331 331 331 331 330 329 328 327 327
310 310 309 309 309 310 310 309 310 310 310 309 311 309 308 308 308 307 307 306 306 307 308 308 313 317 325 331 333 334 334 334 332 331 331 331 330 330 330 329 329 329 328 327
309 310 310 310 309 309 309 309 308 310 310 309 309 306 307 307 308 308 306 307 306 306 307 306 308 314 320 324 329 333 334 334 334 332 331 331 329 330 329 330 329 329 328 328
309 309 309 310 310 308 309 308 308 309 306 306 307 305 305 308 307 307 307 306 306 306 308 306 308 309 311 313 316 321 327 333 334 334 332 331 330 330 330 329 328 329 328 329
310 309 310 310 310 308 309 308 308 309 309 307 308 305 304 305 309 308 307 306 305 305 305 307 309 311 311 311 311 311 312 313 323 333 333 332 330 330 329 328 328 328 327 328
309 308 309 309 308 308 307 308 307 306 305 306 306 305 304 306 307 307 308 309 306 308 307 307 310 311 312 313 312 312 311 310 310 311 331 332 331 330 329 327 327 328 328 328
308 309 308 307 308 307 307 306 308 308 308 306 305 307 306 307 306 306 307 308 308 307 307 307 308 309 312 313 316 317 314 311 310 309 313 331 331 331 328 327 327 328 327 328
309 309 308 308 308 308 307 306 309 308 311 308 305 307 306 305 306 307 306 306 306 307 307 307 308 309 310 312 316 316 313 312 311 310 312 319 331 331 328 327 325 327 328 327
308 309 307 307 309 308 308 309 307 307 296 306 306 305 306 306 307 306 305 307 307 307 306 307 308 309 309 310 312 315 315 316 318 320 321 322 325 330 328 325 325 328 328 328
308 310 309 308 308 308 308 306 308 306 303 304 305 306 305 309 306 305 306 304 306 306 306 305 306 307 307 308 309 314 314 315 317 319 321 322 323 324 324 326 327 328 327 326
307 309 310 308 308 308 307 308 307 306 307 307 305 304 302 306 306 305 303 303 304 306 305 304 304 306 306 306 307 310 311 313 314 316 317 318 319 320 320 321 320 320 320 320
308 309 309 309 307 306 307 307 306 306 305 304 308 307 306 305 309 306 306 304 304 305 304 303 303 304 304 305 305 306 307 309 310 311 312 313 313 314 314 313 312 313 313 312
307 307 302 309 309 309 308 308 307 305 305 307 305 306 305 306 307 308 307 306 305 304 303 302 302 302 302 302 302 303 303 303 305 307 307 306 306 306 305 305 305 305 304 303
309 308 306 307 307 308 309 308 307 307 308 307 306 307 307 308 309 310 308 306 304 304 303 301 300 301 301 301 301 300 300 300 301 302 302 301 300 299 299 298 299 298 298 298
309 303 308 306 307 308 308 308 308 308 308 308 307 307 307 305 306 305 306 304 304 304 303 301 300 299 300 300 300 299 299 299 299 298 298 296 296 295 294 294 294 293 292 292
308 304 307 305 308 308 308 308 307 308 308 307 307 307 305 306 304 306 306 305 304 304 303 301 300 299 299 299 298 297 296 296 296 294 292 291 291 290 290 289 289 289 288 288
306 304 303 308 309 309 305 306 308 308 307 308 308 308 307 306 306 304 305 304 305 305 303 302 301 300 298 297 296 295 294 293 291 289 288 288 288 288 287 287 287 287 287 287
306 303 303 307 301 306 307 307 307 308 308 307 307 308 308 306 305 303 303 305 304 304 302 301 301 300 299 297 295 293 291 290 288 286 286 286 286 286 285 285 285 286 286 286
306 305 309 308 295 305 309 309 309 308 308 306 307 306 305 304 304 306 302 302 304 304 303 303 301 298 296 294 293 291 288 286 285 284 284 284 284 284 284 285 285 284 285 285
308 305 307 299 303 308 305 307 306 306 309 304 305 305 304 304 306 306 300 300 301 303 302 300 297 294 292 291 292 288 285 284 283 282 282 283 283 283 284 283 283 283 284 284
311 311 311 309 301 303 304 304 305 309 308 298 302 303 303 302 302 300 294 292 291 293 292 292 291 289 288 288 289 285 283 282 281 281 281 282 282 282 283 283 283 282 283 284
311 311 312 311 311 310 301 305 308 303 300 297 300 300 300 299 299 295 290 288 286 285 285 286 285 284 285 286 286 282 281 280 280 280 280 281 282 282 283 283 283 283 282 282
305 304 306 309 307 303 299 305 303 300 300 300 300 299 299 298 298 294 289 286 284 283 282 283 283 283 283 284 284 281 279 279 280 281 282 282 282 282 283 283 281 280 280 279
299 302 302 302 302 306 302 303 301 300 300 299 298 298 297 298 294 292 287 285 283 282 282 283 282 280 280 281 281 281 279 280 282 283 282 281 281 281 280 279 279 278 277 276
300 301 299 297 303 301 299 299 299 299 297 295 295 295 296 295 293 290 286 284 283 281 280 281 280 279 278 279 279 279 281 282 281 282 281 280 280 279 278 277 276 276 275 276
297 300 304 302 300 300 299 295 294 295 296 295 294 294 293 293 292 288 284 284 282 280 279 279 279 278 278 279 281 281 282 282 282 280 279 279 277 276 275 275 274 274 274 275
Wind_Speed
4 4 7 9 8 4 7 6 6 0 2 4 6 7 9 7 5 8 9 8 8 9 17 22 24 21 30 34 35 35 35 33 31 31 30 31 33 34 31 27 27 26 24 22
3 5 8 8 6 4 3 6 4 2 0 2 3 9 9 7 8 8 10 9 10 6 7 16 25 26 24 30 35 36 36 34 34 33 32 28 28 29 32 33 31 27 26 24
6 7 8 8 7 8 3 6 5 5 2 3 2 7 7 8 7 6 9 8 9 11 10 9 18 28 28 26 27 33 35 35 35 34 31 27 23 24 27 31 33 32 30 29
6 6 11 6 5 6 5 4 6 9 4 3 2 5 6 5 8 7 12 10 10 10 4 5 9 11 17 17 19 19 21 28 33 35 34 34 29 23 23 27 30 31 30 30
7 8 8 6 8 7 5 6 7 4 4 2 2 1 7 5 4 7 10 10 9 8 8 8 10 9 8 10 11 14 19 19 19 31 36 37 32 30 23 23 26 28 29 32
3 0 2 6 4 7 8 8 9 6 4 2 6 6 5 5 8 6 3 5 7 9 8 7 8 5 3 6 10 15 19 23 23 16 31 34 31 29 27 24 24 26 27 28
3 3 2 4 9 6 7 6 3 2 2 6 3 4 7 6 8 7 7 6 7 8 7 6 7 7 3 1 3 7 10 15 20 23 16 30 33 32 26 23 24 25 25 25
6 2 6 2 7 9 9 8 6 7 5 4 3 7 6 9 5 4 6 7 7 7 7 7 6 4 3 2 1 3 3 5 8 13 15 16 26 28 23 21 22 26 24 22
5 2 2 3 2 10 5 5 5 7 3 3 5 7 8 9 8 6 4 6 7 8 8 8 11 9 6 3 1 1 3 5 7 9 10 13 15 21 19 18 19 19 19 17
4 5 2 1 2 2 5 7 2 3 4 3 5 6 7 4 11 5 7 9 8 6 7 7 10 12 10 8 6 5 4 6 5 7 8 10 12 12 9 10 12 14 13 13
5 5 1 3 7 7 3 3 2 5 5 5 1 7 7 10 8 10 10 6 8 9 7 5 7 9 7 7 7 8 10 10 10 9 9 11 9 9 10 11 11 11 11 9
5 6 4 8 3 5 3 5 6 5 4 3 4 10 2 5 3 5 3 7 6 5 6 6 9 8 7 8 8 9 9 11 13 14 15 16 14 13 13 12 11 10 10 8
9 3 3 3 3 3 4 4 3 4 3 8 6 10 4 3 5 5 4 5 6 7 7 7 9 10 10 9 10 10 10 12 14 15 17 17 17 17 16 16 15 14 13 13
11 4 9 11 5 7 7 8 11 6 4 6 9 13 2 3 3 1 3 6 8 8 9 7 6 11 14 14 14 13 14 15 17 18 19 19 19 19 19 19 20 19 17 17
7 6 5 4 6 6 5 9 13 16 15 8 16 16 17 7 6 7 6 6 7 8 9 9 8 10 17 17 16 16 17 17 18 21 22 22 21 20 20 20 20 20 17 16
1 1 4 3 6 6 3 8 11 16 8 13 4 19 8 4 3 2 8 8 8 9 9 8 8 14 18 22 23 21 20 19 20 22 23 21 20 19 19 19 18 18 17 15
4 5 4 3 1 6 8 9 10 6 7 10 14 27 2 3 8 8 8 10 13 14 12 13 15 20 20 23 25 23 22 21 21 22 21 20 19 19 17 16 16 17 16 13
5 5 3 3 3 3 6 4 12 17 8 8 13 16 9 4 5 8 6 7 11 11 9 11 16 21 29 29 27 25 24 25 24 22 20 18 17 18 17 14 16 15 15 15
4 5 3 5 3 4 5 5 6 8 8 4 12 6 3 6 6 4 8 6 10 12 15 17 22 23 26 30 29 28 26 25 24 21 20 18 17 16 15 15 15 15 15 15
4 5 4 3 6 9 6 3 1 5 5 4 3 3 3 5 1 2 13 14 14 14 12 20 26 29 34 33 33 31 27 23 21 19 18 18 16 15 15 14 14 14 14 15
5 2 4 4 3 7 7 5 0 6 5 5 6 5 3 3 5 4 7 8 11 10 15 20 23 22 25 32 32 29 27 23 19 17 16 15 14 14 14 15 14 14 14 12
7 7 4 3 3 9 6 3 9 5 3 6 6 5 5 6 4 3 2 4 7 11 15 17 21 22 25 28 30 27 25 21 20 18 16 15 11 11 11 10 10 9 9 10
3 6 6 9 6 3 4 3 3 4 6 5 3 4 4 5 5 5 5 5 5 11 13 17 23 25 23 23 28 31 23 20 19 18 15 12 10 8 7 6 9 9 10 12
3 2 3 4 4 5 5 1 4 3 4 4 3 4 5 6 6 5 5 5 6 13 16 22 25 22 22 23 26 24 22 23 21 17 14 11 10 8 7 6 8 9 10 11
4 7 6 3 2 5 5 3 3 1 2 4 4 5 6 5 6 5 4 5 9 11 15 23 23 23 23 23 24 24 24 21 18 16 15 12 10 8 7 7 8 8 9 8
4 6 5 3 3 5 4 5 3 3 3 4 4 3 5 6 8 6 5 12 14 15 17 18 20 27 29 27 24 22 20 19 19 18 14 11 11 9 7 7 8 7 7 7
Wind_Direction
210 127 177 184 185 182 152 167 142 88 262 144 209 257 256 261 224 244 242 239 248 235 227 219 210 210 206 202 201 205 203 209 199 209 211 217 222 222 224 226 226 223 225 226
76 198 203 178 197 164 133 154 131 90 287 154 200 260 257 243 229 203 222 233 235 243 242 222 210 206 200 201 203 205 209 210 207 206 212 215 220 225 226 229 226 224 227 231
147 213 194 170 169 155 176 162 170 150 136 5 19 294 253 251 240 227 218 210 216 215 229 222 203 205 202 203 204 206 211 214 214 214 214 212 223 226 227 228 233 231 234 231
176 230 184 150 163 131 144 137 127 122 103 209 129 271 294 243 247 212 234 219 221 219 192 191 178 171 191 201 210 210 206 214 220 217 214 207 205 209 217 229 236 235 232 228
207 156 153 155 170 143 189 138 132 119 96 84 260 48 267 278 247 244 233 231 226 233 191 141 125 135 151 189 212 219 225 219 208 220 218 212 206 213 217 233 238 241 239 239
128 169 97 157 80 121 147 84 45 47 75 299 231 178 267 217 215 239 208 244 182 144 127 125 126 139 160 235 246 244 242 235 230 216 218 217 210 211 215 231 234 237 239 237
81 54 347 113 83 6 103 89 44 27 348 225 7 239 242 255 241 199 192 174 161 149 143 131 121 122 120 236 255 252 252 247 236 234 217 218 222 219 236 230 233 230 233 233
146 187 170 191 153 174 167 163 158 181 196 228 10 238 254 245 236 223 186 185 155 143 134 133 125 106 100 48 300 272 226 203 209 213 217 211 220 223 235 234 240 240 237 235
131 172 54 82 110 147 219 196 166 106 34 71 231 292 287 257 248 221 172 128 167 166 165 150 148 154 158 156 54 244 191 157 147 156 176 191 198 213 229 232 233 235 232 229
158 117 9 141 155 66 163 154 102 10 122 252 279 271 237 277 251 251 215 203 197 188 175 168 167 162 159 163 162 156 154 154 148 135 143 146 157 168 193 190 196 194 195 201
143 103 268 136 212 157 126 178 124 122 153 169 216 260 224 212 213 234 246 200 192 196 193 169 150 158 164 156 154 148 142 136 127 136 148 161 156 164 158 152 145 148 152 157
173 119 164 197 255 206 138 184 153 163 234 214 165 254 244 137 129 180 217 198 190 176 156 148 156 162 164 162 149 135 135 133 130 133 133 134 144 150 146 141 139 141 136 139
174 181 77 56 334 354 189 171 188 122 79 212 146 256 360 91 67 47 127 141 154 147 156 173 175 176 170 154 143 142 140 130 137 146 141 134 133 137 133 132 131 128 125 121
151 146 180 192 191 149 178 192 202 172 190 196 232 261 256 75 56 107 169 177 175 185 186 186 177 180 174 163 157 146 137 143 143 143 138 131 130 130 127 124 121 117 115 113
146 163 125 135 118 125 168 187 196 207 211 188 251 248 256 217 254 244 216 179 192 209 209 195 187 182 177 165 157 151 148 150 149 140 133 127 127 125 124 121 117 116 114 107
28 96 99 343 143 149 201 204 204 218 205 243 276 270 104 168 126 208 224 203 221 232 229 202 184 180 174 167 162 155 153 152 152 138 128 128 127 127 123 120 116 113 106 101
104 122 91 214 124 73 288 184 198 192 194 212 226 247 55 250 234 248 233 212 218 227 215 196 196 186 174 166 166 160 155 152 147 138 134 133 132 126 118 114 111 102 95 91
124 98 92 165 56 168 262 243 189 206 196 211 253 263 275 293 272 250 259 222 230 234 214 207 189 177 178 175 172 163 158 154 148 140 135 130 129 123 117 113 99 94 89 79
72 111 104 148 190 298 272 202 166 167 230 264 254 308 347 316 301 309 5 317 259 236 218 203 183 170 168 168 166 160 156 153 148 141 136 133 129 122 117 103 92 89 82 75
51 73 119 127 153 206 237 234 225 95 257 214 125 96 346 344 339 280 334 326 311 275 186 153 161 161 161 164 164 161 154 152 146 144 136 130 130 121 109 96 87 79 75 72
137 112 157 171 212 284 248 224 295 128 232 162 160 155 138 127 208 284 325 359 20 60 100 133 139 140 152 161 163 153 155 151 148 143 134 130 123 113 103 94 83 76 65 61
161 150 172 137 208 257 192 111 168 179 93 162 187 189 185 215 224 175 78 68 52 68 88 116 115 124 150 161 163 149 151 150 147 141 132 125 120 106 96 88 87 87 85 69
216 176 174 187 205 250 180 101 107 128 140 198 205 208 219 217 222 183 162 136 109 114 113 133 131 133 147 160 168 154 149 148 143 138 129 123 114 105 102 103 92 77 62 59
277 169 148 98 208 174 167 99 96 138 159 177 190 194 198 247 219 207 168 163 155 154 149 156 150 139 141 157 159 154 150 150 149 144 139 143 143 128 113 94 78 70 64 53
195 136 155 276 304 75 26 55 52 67 163 186 208 225 237 232 231 206 192 175 176 174 166 167 155 148 151 156 154 154 155 159 158 156 158 153 145 147 136 113 88 76 69 42
192 168 171 205 165 122 160 198 190 186 200 223 221 259 247 224 228 187 188 190 176 172 173 165 163 159 160 161 161 163 165 169 172 167 161 167 167 151 131 119 106 104 77 72